DELTA 1 DEB

Satellite information

Favourite Embed

Satellite Type and Status

DEBRISIN ORBIT

Key statistics

Satellite DELTA 1 DEB at a glance.

Uptime

17290

Days in orbit

Revolutions

≈ 14.3

Per day

Orbit

SSO

Sun Synchronous Orbit

Inclination

99.0

Latest

Satellite identification and parameters

Extended collection of information and parameters for DELTA 1 DEB.

Object identification

Identified? True

Debris? True

Object name: DELTA 1 DEB

International designator: 1978-026EY

Object number (NORAD): 13561

Object ID (CCSDS): 13561

Country: UNITED STATES OF AMERICA (US)

Current information (Y/N): Y

RCS size: SMALL

Orbital parameters

Period: 100.448 minutes

Inclination: 99.0274 deg

SMA: 7157.916 km

Apoapsis: 868.91 km

Periapsis: 690.653 km

RAAN: 43.0437 deg

Eccentricy: 0.0124517

Argument of periapsis: 231.844 deg

Mean anomaly: 192.8675 deg

Mean motion: 14.33582928 rev/day

Mean motion (dot): 0.00003279 rev/day2

B* drag term: 0.0011024 1/REarth

Two-line elements (TLE)

Creation date: July 5, 2025, 10:26 p.m.

Reference frame: TEME

Reference center: EARTH

Epoch: July 5, 2025, 2:28 p.m. UTC

TLE line 0: 0 DELTA 1 DEB

TLE line 1: 1 13561U 78026EY 25186.60309674 .00003279 00000-0 11024-2 0 9997

TLE line 2: 2 13561 99.0274 43.0437 0124517 231.8440 192.8675 14.33582928247301

Live tracking on map

Real-time ground track for satellite DELTA 1 DEB.

In-orbit conjunctions

A list of the most updated potential collisions computed for object DELTA 1 DEB.

Target Orbit TCA Probability of collision Miss distance Type
SL-8 DEB * LEO 2025-07-02 18:40:53 0.0001513901 267.0 (m) DEBRIS
FENGYUN 1C DEB SSO 2025-01-23 22:22:00 0.000105638 98.0 (m) DEBRIS
CZ-6A DEB LEO 2024-11-28 08:38:18 0.0001444647 308.0 (m) DEBRIS
COSMOS 1275 DEB LEO 2024-11-14 07:47:10 0.000160007 269.0 (m) DEBRIS
KITSAT 3 SSO 2024-11-10 20:31:55 0.0001589543 454.0 (m) PAYLOAD

Associated space launch

Earth observation satellite

DELTA 1 DEB was lifted into orbit during the mission ‘Delta 2910 | Landsat 3’, on board a Delta 2910 space rocket.

The launch took place on March 5, 1978, 5:54 p.m. from Space Launch Complex 2W.

For more information about the launch, click the button.

Launch to space Delta 2910 | Landsat 3
Delta 2910 | Landsat 3

Agency: N/A

Status: Launch Successful

Launch date: March 5, 1978, 5:54 p.m. UTC

Rocket: Delta 2910

Launch pad: Space Launch Complex 2W

Location: Vandenberg SFB, CA, USA

...

Latest news about this satellite

There are no fresh news available about this satellite. Check back as we update our databases every day.


Newsletter sign-up

Weekly statistics, charts and insights to help you stay on top of the space industry.